Regional Weather Roundup
Issued by NWS Albany, NY

Home | Current Version | Previous Version | Text Only | Print | Product List | Glossary On
Versions: 1 2 3 4 5 6 7 8 9 10 11 12 13 14 15 16 17 18 19 20 21 22 23 24 25 26 27 28 29 30 31 32 33 34 35 36 37 38 39 40 41 42 43 44 45 46 47 48 49 50
000
ASUS41 KALY 281810
RWRALY

NEW YORK STATE HOURLY WEATHER ROUNDUP
NATIONAL WEATHER SERVICE ALBANY NY
200 PM EDT FRI AUG 28 2015

NOTE: "FAIR" INDICATES FEW OR NO CLOUDS BELOW 12,000 FEET WITH NO
SIGNIFICANT WEATHER AND/OR NO OBSTRUCTIONS TO VISIBILITY.

NYZ032-033-038>043-046>054-057>066-NYZ062>081-281900-
EAST


CITY           SKY/WX    TMP DP  RH WIND       PRES   REMARKS
ALBANY         PTSUNNY   73  53  49 NW3       30.18S
GLENS FALLS    SUNNY     73  54  51 VRB3      30.16F
POUGHKEEPSIE   MOSUNNY   78  52  40 NW7       30.16F
NEWBURGH       MOSUNNY   72  55  56 W9        30.19F
MONTGOMERY     CLOUDY    77  56  48 CALM      30.18F
WHITE PLAINS   MOSUNNY   78  51  38 NW8       30.16F
ISLIP          MOSUNNY   79  52  38 N8        30.14F
NEW YORK CITY  MOSUNNY   79  49  34 NW10      30.15F
CENTRAL PARK   SUNNY     81  49  32 CALM      30.18F
$$

NYZ005>009-017-018-044>046-055-056-281900-
CENTRAL


CITY           SKY/WX    TMP DP  RH WIND       PRES   REMARKS
FULTON         CLOUDY    71  56  58 CALM      30.19F
SYRACUSE       PTSUNNY   71  53  52 CALM      30.18F
ROME           MOSUNNY   70  55  59 NW3       30.19F
ELMIRA         MOSUNNY   73  54  51 VRB5      30.20S
BINGHAMTON     PTSUNNY   68  51  54 VRB6      30.22F
MONTICELLO     PTSUNNY   70  54  56 W3        30.22F
$$

NYZ026>034-041>043-281900-
NORTH


CITY           SKY/WX    TMP DP  RH WIND       PRES   REMARKS
WATERTOWN      SUNNY     71  53  52 W9        30.18F
FORT DRUM      NOT AVBL
MASSENA        PTSUNNY   71  56  58 W7        30.17F
SARANAC LAKE   CLOUDY    67  50  54 SW5       30.18F
PLATTSBURGH    SUNNY     72  58  61 SE8       30.15F
$$

NYZ001>004-010>016-019>021-281900-
WEST


CITY           SKY/WX    TMP DP  RH WIND       PRES   REMARKS
NIAGARA FALLS  PTSUNNY   73  55  53 SW10      30.19S
BUFFALO        MOSUNNY   72  54  53 SW12      30.19F
DUNKIRK        SUNNY     69  59  70 NW9       30.21F
JAMESTOWN      MOSUNNY   66  50  55 W3        30.23S
WELLSVILLE     MOSUNNY   69  51  52 VRB5      30.25F
ROCHESTER      PTSUNNY   72  55  55 SW7       30.20F
PENN YAN       MOSUNNY   72  53  51 W6        30.21F
$$

             KEY
       WCI = WIND CHILL INDEX
       VSB = VISIBILITY
       HX  = HEAT INDEX
$$



USA.gov is the U.S. government's official web portal to all federal, state and local government web resources and services.